Temperature
8 10 10 10 9 10 10 10 11 11 9 9 10 10 11 10 10 9 9 9 9 8 8 8 8 8 8 8 9 9 9 9 9 9 9 9 9 9 9 9 9 9 9 9
10 9 8 8 8 8 9 10 10 9 8 9 9 10 11 10 10 9 9 9 9 8 8 7 8 8 8 8 8 8 8 8 8 8 8 8 8 9 9 9 9 9 9 9
10 8 7 8 8 8 9 9 10 9 8 8 9 11 11 11 9 8 8 8 8 8 7 7 7 7 7 8 8 8 8 8 8 8 8 8 8 8 8 8 9 9 9 9
8 7 7 8 8 8 9 8 8 8 8 10 9 11 12 11 10 10 9 8 7 7 7 7 7 7 7 7 7 7 7 8 8 7 7 7 7 7 8 8 8 8 8 8
7 7 7 7 7 7 8 7 7 7 8 8 9 9 12 11 11 10 9 8 7 7 6 6 6 6 7 7 7 7 7 7 7 7 7 7 7 7 7 7 7 7 7 7
6 6 6 7 6 6 6 6 7 7 7 8 9 9 12 12 11 10 10 8 7 6 6 6 6 6 6 7 7 7 7 7 7 7 6 6 6 6 6 7 7 7 7 7
7 6 6 6 7 6 7 8 8 9 9 10 8 8 11 10 9 9 9 8 7 6 5 5 6 6 6 6 6 6 6 6 6 6 6 6 6 6 6 6 6 6 6 6
8 8 6 6 6 7 7 7 9 10 10 11 7 8 11 9 8 7 7 6 6 6 5 5 5 5 5 5 6 6 5 6 6 5 5 5 5 5 5 5 5 5 5 6
8 8 5 5 5 6 6 7 7 7 6 8 10 9 9 8 8 7 7 6 6 5 5 5 5 5 5 5 5 5 5 5 5 5 5 5 5 5 5 5 5 5 5 5
6 6 5 5 5 5 6 6 6 7 8 9 10 10 11 9 8 8 7 7 6 5 4 4 4 5 5 4 4 4 4 4 4 4 4 4 4 4 4 4 4 4 5 5
5 5 5 5 5 6 5 5 6 6 7 8 10 11 10 8 8 7 7 6 5 5 4 4 4 4 4 4 4 4 4 3 4 4 4 4 4 4 4 4 4 4 4 4
4 5 6 5 4 4 5 6 6 7 6 6 8 10 8 7 6 6 6 5 5 4 4 4 3 3 3 3 3 3 3 3 3 3 3 3 3 3 3 3 3 3 3 3
4 4 6 6 5 3 4 4 4 4 5 6 7 9 7 6 6 5 5 5 4 4 3 3 3 3 3 2 3 2 2 3 2 2 2 3 3 3 3 3 3 3 3 3
3 3 5 7 7 5 4 3 3 4 5 6 7 8 8 7 6 6 5 4 4 3 3 3 3 2 2 2 2 2 2 2 2 2 2 2 2 2 2 2 2 2 3 2
3 3 3 3 4 3 4 4 3 3 5 6 7 6 7 7 6 5 4 4 3 3 2 2 2 2 2 2 2 1 2 2 1 1 1 1 1 1 1 2 2 2 2 2
1 2 1 2 2 2 2 3 3 3 4 4 5 5 6 5 4 4 4 3 3 2 2 2 2 1 1 1 1 1 1 1 1 1 1 1 1 0 1 1 1 1 1 1
1 1 2 4 2 2 4 4 4 3 4 4 5 6 5 4 4 3 3 2 2 1 1 1 1 1 1 1 1 1 1 1 1 0 0 0 -0 -0 -0 -0 0 0 0 0
-0 0 1 3 2 3 6 4 4 4 4 3 4 4 4 3 2 2 2 2 1 1 1 1 1 1 0 0 0 0 0 0 0 -0 -0 -0 -1 -1 -0 -0 -0 -0 -0 -0
0 1 1 2 3 5 5 3 2 3 4 3 3 3 3 2 1 2 1 1 1 0 0 0 0 0 0 -0 -0 -1 -1 -1 -1 -1 -1 -1 -1 -1 -1 -1 -1 -0 -0 -0
-1 -1 1 1 3 4 6 3 1 3 4 3 2 2 2 1 3 4 1 0 0 -0 -0 -0 -0 -0 -0 -1 -1 -1 -1 -1 -1 -1 -1 -1 -1 -1 -1 -1 -1 -1 -1 -1
-1 -1 -0 1 2 4 3 1 1 3 4 2 1 1 1 1 2 1 0 -0 -0 -0 -0 -1 -1 -1 -1 -1 -1 -1 -1 -1 -1 -2 -2 -1 -1 -1 -1 -1 -1 -1 -1 -1
0 0 -0 0 1 3 1 0 2 3 1 0 -0 -0 -0 -0 -0 -1 -1 -1 -1 -1 -1 -1 -1 -1 -1 -2 -2 -2 -2 -2 -2 -2 -2 -2 -2 -2 -2 -2 -2 -2 -2 -2
0 1 1 1 3 1 -0 0 0 0 -0 -0 -1 -1 -1 -1 -1 -1 -1 -1 -1 -1 -1 -1 -2 -2 -2 -2 -2 -2 -2 -2 -2 -2 -2 -2 -2 -2 -2 -2 -2 -2 -2 -2
-1 -2 -1 -1 -0 -0 -1 -1 -1 -0 -1 -1 -1 -1 -1 -1 -2 -2 -2 -1 -1 -2 -2 -2 -2 -2 -2 -2 -2 -2 -2 -2 -2 -2 -2 -2 -2 -2 -2 -3 -3 -3 -3 -3
-0 -2 -2 -1 -0 -1 -1 -1 -0 -1 -1 -1 -1 -1 -2 -2 -2 -2 -2 -2 -2 -2 -2 -2 -3 -3 -2 -2 -2 -3 -3 -3 -3 -3 -3 -3 -3 -3 -3 -3 -3 -3 -3 -3
-2 -2 -1 1 0 -0 -0 -0 -1 -1 -1 -1 -2 -2 -2 -2 -2 -2 -2 -2 -2 -3 -3 -3 -3 -3 -3 -3 -3 -3 -3 -3 -3 -3 -3 -3 -3 -3 -3 -3 -3 -3 -3 -4
Wind_Speed
1 3 4 4 4 2 2 4 6 4 2 5 9 12 11 9 9 9 9 8 8 8 7 4 4 3 3 3 3 3 3 2 2 2 2 2 3 2 3 3 4 5 5 5
3 4 3 2 3 3 3 4 5 3 2 4 8 12 11 10 10 9 9 9 9 8 6 5 4 3 4 4 4 4 4 3 3 3 3 3 3 3 3 4 4 5 5 5
4 1 2 3 3 4 4 6 5 5 5 4 7 9 8 6 7 7 7 7 7 7 6 5 4 3 4 4 4 4 4 4 4 4 3 2 2 3 3 4 4 4 5 5
2 2 3 4 4 4 5 3 4 5 5 4 3 6 6 5 6 6 5 5 5 4 4 3 3 3 3 4 4 4 4 4 4 3 3 4 4 5 5 4 4 5 5 6
3 3 3 4 3 4 2 0 3 4 4 5 5 5 7 4 6 5 4 3 3 3 3 3 3 3 3 3 3 3 3 4 4 4 4 5 6 5 4 4 5 5 5 6
1 1 1 2 1 3 2 2 1 3 3 5 6 7 7 4 5 4 3 1 1 1 1 2 2 2 2 3 3 3 3 3 4 4 5 6 6 6 6 6 6 5 4 5
2 2 1 1 2 3 3 2 2 3 4 5 2 6 7 1 2 4 3 1 0 1 1 2 2 2 3 3 3 3 3 4 4 4 5 6 6 7 7 7 6 6 5 5
3 3 3 2 3 3 5 4 3 4 4 3 3 8 4 0 2 3 3 2 0 1 2 2 3 3 3 4 3 3 4 4 4 4 5 6 6 5 6 7 7 7 7 6
4 2 2 2 1 3 4 4 2 1 2 5 6 6 5 2 3 3 3 2 0 1 2 3 3 3 3 4 4 4 4 5 5 5 5 5 6 6 7 7 7 7 7 6
2 2 2 1 3 2 2 3 3 4 4 6 6 7 4 4 5 4 3 2 1 2 3 3 4 4 4 4 5 5 4 5 5 5 5 5 5 6 7 7 8 8 8 7
2 2 2 3 6 6 5 5 4 3 3 4 6 4 1 4 4 4 2 2 2 3 4 4 5 5 5 5 4 5 4 5 5 6 6 6 6 6 6 7 7 7 8 8
3 2 3 4 1 2 5 6 7 5 5 5 6 6 1 3 3 3 3 3 4 4 5 5 5 5 5 5 5 5 5 5 6 6 6 6 6 6 6 7 7 7 8 8
4 3 2 3 3 4 5 7 7 4 3 6 7 7 1 1 3 5 5 5 5 5 6 6 6 6 6 6 6 6 6 6 6 6 6 6 6 6 7 7 7 7 8 8
2 4 6 7 3 3 6 8 9 8 7 9 13 13 9 7 8 8 7 7 6 6 6 6 6 6 6 6 6 6 6 6 6 6 6 7 7 7 7 8 7 7 7 8
1 4 5 8 8 6 9 11 12 14 14 12 13 14 15 11 9 9 8 8 7 7 7 7 7 7 7 7 7 7 6 6 6 6 7 7 7 7 7 8 8 7 7 8
1 3 3 6 5 6 10 14 15 16 16 17 17 18 12 9 8 8 8 8 8 7 7 7 7 7 7 7 7 7 7 6 6 7 7 7 7 7 7 8 8 8 8 7
3 3 3 5 4 6 11 12 14 11 11 12 14 12 6 7 8 8 8 8 7 7 7 7 7 7 7 7 7 7 7 7 7 7 7 7 7 7 8 8 8 8 8 8
5 4 3 4 3 8 4 1 6 10 11 13 12 11 9 9 8 8 7 7 7 7 7 7 7 8 7 7 7 7 6 6 6 7 7 7 7 8 8 8 8 8 7 7
6 5 4 3 6 10 7 3 5 7 8 9 11 11 8 6 6 6 3 4 6 6 6 6 6 7 6 6 6 6 6 6 6 7 7 7 7 8 8 8 8 8 7 7
4 5 5 5 6 8 3 1 2 4 6 3 6 7 6 4 6 5 3 4 5 5 5 5 5 5 5 5 5 5 6 6 7 7 8 8 7 8 8 8 8 7 7 7
5 5 8 9 8 8 3 1 4 5 3 1 3 4 5 5 6 6 6 5 5 5 5 5 5 5 5 5 5 5 6 7 7 8 8 8 7 7 8 8 7 7 6 6
8 7 8 7 8 8 3 4 5 3 3 3 5 5 6 6 7 7 6 6 5 5 6 5 5 5 5 5 5 6 7 7 7 8 8 8 7 7 6 7 6 6 5 5
8 7 5 8 7 2 3 4 3 3 5 6 6 6 6 6 6 6 6 6 6 6 5 5 5 6 6 5 5 6 7 7 7 7 7 7 7 6 6 6 5 5 4 4
5 3 5 6 8 7 8 8 8 7 7 7 6 6 5 6 6 6 6 6 6 6 6 5 5 6 7 7 6 6 7 6 6 7 7 6 6 6 5 4 4 4 4 4
5 5 5 8 8 8 7 8 8 6 6 6 6 5 6 6 7 6 6 6 5 5 5 5 5 6 7 7 7 7 6 6 6 6 6 6 5 5 5 4 4 4 4 4
7 8 7 8 6 6 6 5 6 6 7 6 6 6 6 6 6 6 5 5 5 5 5 5 6 6 7 7 7 7 6 6 6 5 5 5 4 4 4 4 4 4 4 5
Wind_Direction
147 184 205 214 223 270 229 234 250 258 292 265 254 264 266 257 248 248 248 249 249 251 255 255 258 260 262 262 260 253 260 260 256 255 254 249 259 274 270 272 269 260 254 249
166 214 224 204 189 194 219 245 260 264 285 270 276 276 267 252 244 246 250 249 249 254 253 253 259 258 256 262 266 257 256 259 252 251 255 248 257 259 267 267 266 263 257 251
193 158 173 181 188 215 237 247 263 278 296 258 284 274 249 232 235 245 249 251 253 249 249 251 262 271 270 270 269 266 260 259 257 256 252 250 259 257 257 265 261 264 264 259
195 179 182 190 206 224 245 258 265 265 268 270 274 281 255 234 237 238 242 240 244 245 249 254 262 274 277 279 275 266 262 260 261 255 246 243 248 258 265 271 262 261 259 258
182 183 189 206 216 216 244 242 247 249 249 270 243 256 268 230 235 228 222 223 236 251 255 263 270 276 284 292 289 280 271 264 264 258 254 251 254 259 266 269 270 264 255 252
167 190 231 220 188 191 160 164 202 219 234 253 234 235 267 230 226 213 202 202 242 265 278 291 295 298 304 313 307 294 282 278 273 262 255 253 259 262 262 262 271 273 262 253
187 183 176 199 169 164 191 203 235 231 230 244 180 237 256 267 225 221 214 211 332 329 331 333 335 330 330 324 321 311 296 289 284 272 263 260 261 261 260 263 264 271 268 263
200 205 185 192 205 198 202 219 234 249 256 267 219 242 256 317 249 232 231 228 254 356 355 346 342 336 335 330 326 325 318 305 295 285 278 270 268 265 264 264 263 263 264 262
205 210 137 187 219 204 193 212 265 260 283 269 249 256 276 208 213 207 213 208 237 348 348 340 335 335 333 329 323 323 318 315 312 302 294 282 277 272 269 269 268 267 265 263
201 220 200 181 184 202 248 183 186 209 243 263 262 255 245 204 198 197 208 221 305 335 335 331 329 327 325 323 319 316 315 312 312 310 302 294 288 282 278 272 269 269 270 268
193 195 190 190 206 204 183 190 203 207 245 257 274 268 226 218 202 204 225 256 295 312 316 318 321 320 316 315 316 311 312 312 311 311 307 301 297 293 285 278 275 272 272 269
183 196 231 228 209 270 231 217 203 221 228 234 265 271 102 224 215 224 256 284 296 301 309 314 319 316 311 311 313 311 309 309 309 308 306 302 301 299 294 288 283 279 273 270
171 184 224 221 202 204 225 221 218 225 232 232 245 263 116 231 248 267 283 291 297 301 309 313 314 310 308 307 307 308 305 306 308 309 308 307 304 301 299 297 292 284 278 275
202 214 229 244 269 207 225 221 212 213 231 243 245 263 272 272 272 280 285 289 295 299 304 308 310 308 307 305 303 303 303 306 310 310 308 306 304 302 302 299 296 290 282 276
204 237 243 262 270 261 251 239 219 221 232 243 257 263 272 279 279 278 279 285 289 295 300 305 305 307 308 306 304 302 301 303 304 303 302 300 303 303 302 299 296 290 285 281
203 234 249 266 263 263 264 252 236 235 239 246 262 270 276 282 280 275 274 276 282 289 294 300 301 304 304 302 302 302 300 300 299 296 297 300 300 300 299 298 294 290 289 287
194 194 231 261 288 288 262 241 223 224 226 229 244 258 282 283 276 275 276 275 275 281 289 294 297 298 299 299 297 295 294 295 295 294 295 295 296 297 297 297 294 291 290 288
188 194 230 269 277 248 252 176 218 231 242 233 248 266 273 276 284 275 266 265 273 284 292 297 300 303 304 302 299 295 292 292 292 291 292 294 294 293 294 293 292 292 290 284
211 198 210 229 253 269 272 226 204 224 257 235 241 257 270 293 291 272 258 267 278 287 294 294 297 301 303 305 303 299 297 296 294 293 293 294 293 291 290 291 291 292 289 283
183 202 214 218 240 250 263 155 198 220 260 224 229 251 270 278 282 291 317 301 297 301 302 304 309 310 308 307 306 301 298 298 297 296 295 293 291 288 286 288 289 288 285 280
180 198 215 227 241 261 283 171 174 221 283 351 258 266 264 261 281 308 314 309 309 309 310 312 312 309 309 311 308 299 297 296 297 298 296 294 293 290 288 289 287 287 284 279
195 194 203 206 227 250 162 157 204 272 331 304 293 289 277 283 299 304 306 310 314 314 314 315 313 312 314 316 310 299 297 300 302 300 298 297 297 298 296 295 292 290 286 279
215 214 212 211 229 305 186 222 257 285 286 292 294 291 285 286 293 297 303 309 310 309 310 311 309 311 314 314 308 299 303 306 304 303 302 303 303 302 301 300 298 296 292 284
228 225 231 250 261 266 264 265 269 269 273 283 286 284 278 281 285 289 296 303 307 308 309 312 311 310 311 313 309 304 309 309 304 304 306 307 307 308 309 306 302 295 296 290
235 196 232 255 271 282 266 256 265 274 278 282 283 279 279 280 281 283 290 296 301 305 307 307 304 303 306 311 310 312 314 311 307 306 306 307 309 310 309 310 310 303 296 296
220 214 226 253 257 254 271 271 265 269 273 274 278 286 283 274 275 281 284 291 296 299 304 303 303 303 306 309 309 313 314 309 307 306 307 308 311 312 312 316 321 326 312 313
Height
1508 1507 1506 1507 1509 1508 1506 1506 1504 1505 1510 1509 1503 1500 1498 1499 1500 1499 1499 1499 1499 1499 1499 1498 1498 1498 1498 1498 1498 1498 1498 1497 1497 1497 1497 1497 1498 1498 1498 1498 1498 1498 1498 1499
1506 1507 1510 1511 1511 1510 1509 1507 1505 1507 1510 1508 1502 1497 1493 1494 1495 1495 1495 1495 1495 1495 1496 1495 1495 1495 1495 1495 1495 1495 1495 1494 1494 1494 1494 1494 1494 1494 1494 1494 1494 1494 1494 1494
1503 1509 1511 1511 1511 1510 1508 1507 1505 1507 1508 1507 1504 1489 1486 1489 1491 1492 1492 1492 1492 1492 1492 1492 1492 1492 1492 1492 1492 1491 1491 1491 1491 1491 1491 1490 1490 1490 1490 1489 1489 1489 1489 1489
1507 1511 1511 1510 1510 1509 1506 1510 1510 1510 1507 1500 1503 1489 1480 1483 1486 1488 1489 1489 1489 1490 1490 1490 1489 1489 1489 1488 1488 1488 1488 1488 1487 1487 1487 1487 1486 1486 1486 1485 1484 1484 1485 1485
1507 1510 1510 1509 1509 1510 1509 1512 1512 1510 1508 1505 1501 1499 1477 1481 1481 1483 1486 1487 1487 1488 1488 1487 1487 1486 1486 1486 1485 1485 1485 1484 1484 1484 1483 1483 1482 1482 1482 1481 1480 1480 1480 1480
1509 1511 1511 1510 1511 1512 1513 1513 1512 1511 1507 1502 1496 1494 1475 1475 1477 1480 1483 1485 1486 1486 1486 1485 1485 1484 1484 1483 1483 1482 1481 1481 1480 1480 1479 1479 1478 1478 1477 1476 1476 1475 1475 1475
1507 1509 1511 1512 1510 1512 1511 1508 1503 1500 1498 1489 1498 1495 1477 1476 1480 1481 1483 1485 1485 1485 1485 1484 1483 1482 1481 1481 1480 1479 1478 1477 1477 1476 1476 1475 1474 1474 1473 1472 1471 1471 1470 1470
1500 1501 1508 1510 1508 1507 1508 1506 1501 1495 1488 1483 1498 1488 1474 1480 1481 1481 1483 1484 1484 1484 1484 1483 1481 1480 1480 1479 1478 1477 1476 1475 1474 1473 1472 1471 1471 1470 1469 1468 1467 1467 1466 1465
1497 1500 1509 1510 1510 1508 1507 1505 1507 1504 1506 1498 1481 1479 1477 1479 1479 1480 1481 1482 1483 1483 1482 1481 1480 1479 1478 1477 1476 1474 1473 1472 1471 1470 1468 1467 1467 1466 1465 1464 1463 1462 1461 1460
1502 1504 1507 1509 1510 1511 1508 1507 1507 1504 1497 1485 1474 1474 1468 1473 1475 1477 1479 1481 1482 1482 1481 1480 1479 1477 1476 1475 1473 1472 1470 1469 1467 1466 1465 1463 1462 1461 1460 1459 1458 1457 1456 1455
1505 1504 1505 1507 1506 1503 1508 1509 1505 1502 1500 1488 1476 1468 1469 1472 1474 1476 1479 1480 1480 1480 1479 1478 1477 1476 1474 1473 1471 1469 1468 1466 1465 1463 1462 1460 1458 1457 1455 1454 1453 1452 1451 1450
1504 1503 1501 1502 1507 1508 1505 1502 1501 1498 1497 1497 1485 1473 1472 1473 1475 1477 1478 1478 1479 1478 1477 1476 1474 1473 1471 1470 1468 1466 1465 1463 1462 1460 1458 1456 1454 1453 1451 1450 1449 1448 1446 1445
1504 1504 1499 1495 1504 1508 1505 1502 1503 1502 1498 1493 1485 1472 1473 1474 1475 1476 1476 1477 1476 1476 1475 1473 1472 1470 1469 1467 1465 1463 1462 1460 1458 1456 1454 1452 1450 1449 1447 1445 1444 1443 1441 1440
1504 1503 1497 1488 1485 1494 1498 1500 1501 1500 1494 1486 1480 1470 1469 1472 1473 1474 1474 1474 1474 1473 1472 1471 1469 1467 1466 1464 1462 1460 1458 1456 1454 1452 1450 1448 1447 1444 1443 1441 1439 1437 1436 1434
1504 1501 1501 1497 1496 1497 1493 1492 1495 1495 1486 1483 1472 1471 1467 1469 1472 1472 1472 1471 1471 1470 1469 1467 1466 1464 1462 1460 1458 1456 1454 1453 1451 1449 1447 1445 1442 1440 1438 1436 1434 1432 1431 1429
1504 1502 1502 1498 1496 1496 1493 1487 1487 1487 1485 1481 1477 1472 1468 1470 1471 1470 1469 1468 1467 1466 1466 1464 1462 1461 1459 1456 1454 1452 1450 1449 1447 1445 1443 1440 1438 1436 1434 1432 1430 1428 1426 1425
1503 1503 1499 1489 1495 1494 1480 1473 1477 1477 1475 1475 1471 1465 1467 1468 1467 1467 1466 1465 1464 1463 1462 1460 1459 1457 1455 1453 1451 1448 1446 1445 1443 1440 1438 1436 1434 1432 1430 1428 1426 1424 1422 1420
1502 1502 1499 1493 1492 1484 1464 1471 1471 1471 1469 1469 1467 1465 1466 1466 1465 1464 1463 1462 1461 1459 1458 1456 1455 1453 1451 1449 1447 1444 1442 1440 1438 1436 1435 1432 1430 1428 1426 1424 1421 1419 1417 1415
1498 1498 1497 1493 1483 1469 1464 1468 1470 1469 1464 1464 1464 1463 1464 1463 1462 1459 1459 1458 1458 1456 1455 1453 1451 1449 1447 1445 1443 1441 1438 1437 1434 1432 1430 1428 1426 1424 1422 1419 1417 1415 1413 1411
1498 1498 1496 1492 1482 1469 1460 1468 1468 1469 1461 1461 1462 1461 1461 1461 1458 1455 1456 1455 1454 1453 1451 1450 1448 1446 1443 1441 1439 1437 1435 1433 1430 1429 1427 1425 1422 1420 1418 1415 1413 1410 1408 1406
1496 1495 1492 1487 1479 1464 1464 1468 1469 1466 1458 1461 1460 1459 1459 1458 1457 1456 1453 1452 1451 1449 1448 1447 1445 1442 1440 1438 1436 1434 1431 1429 1427 1425 1423 1421 1418 1416 1414 1411 1408 1406 1403 1401
1482 1483 1485 1482 1479 1466 1465 1466 1464 1460 1460 1459 1458 1457 1456 1455 1453 1452 1451 1449 1448 1446 1445 1443 1442 1439 1437 1435 1433 1430 1428 1426 1424 1421 1419 1416 1414 1412 1409 1406 1404 1401 1399 1397
1476 1473 1470 1470 1464 1461 1462 1461 1460 1459 1458 1457 1456 1455 1454 1452 1451 1449 1448 1446 1445 1443 1442 1440 1438 1436 1434 1432 1430 1428 1426 1423 1420 1418 1415 1413 1410 1408 1405 1402 1400 1397 1395 1393
1471 1473 1471 1468 1461 1460 1460 1458 1457 1456 1455 1454 1453 1452 1451 1450 1448 1447 1445 1444 1442 1441 1439 1437 1435 1433 1431 1429 1427 1425 1423 1420 1417 1415 1412 1410 1407 1404 1402 1399 1397 1395 1393 1391
1466 1469 1467 1463 1458 1457 1454 1454 1453 1453 1452 1451 1450 1449 1448 1447 1445 1444 1443 1441 1440 1438 1436 1435 1433 1430 1428 1426 1424 1422 1420 1417 1414 1412 1409 1407 1404 1401 1399 1396 1394 1392 1390 1389
1461 1461 1460 1454 1453 1453 1451 1450 1450 1449 1448 1447 1446 1445 1444 1444 1442 1441 1440 1438 1437 1435 1433 1432 1430 1428 1426 1423 1421 1419 1417 1414 1412 1409 1407 1404 1401 1399 1396 1394 1391 1389 1388 1386